| time (UTC) | temp F | wind direction | speed knots | gust knots | rain 1hr in | rain 24hr in | rain mn in | humidity % | barometer mb |
| 20260505153250 | 58 | 133 | 0.9 | 2.6 | 0.00 | 0.00 | 0.00 | 53 | 1010.5 |
| 20260505152747 | 58 | 128 | 0.0 | 2.6 | 0.00 | 0.00 | 0.00 | 52 | 1010.2 |
| 20260505152243 | 58 | 82 | 1.7 | 2.6 | 0.00 | 0.00 | 0.00 | 52 | 1010.2 |
| 20260505151737 | 58 | 93 | 1.7 | 2.6 | 0.00 | 0.00 | 0.00 | 53 | 1010.1 |
| 20260505151235 | 58 | 74 | 1.7 | 2.6 | 0.00 | 0.00 | 0.00 | 56 | 1010.1 |
| 20260505150733 | 58 | 142 | 0.0 | 0.9 | 0.00 | 0.00 | 0.00 | 56 | 1010.2 |
| 20260505150230 | 58 | 140 | 0.0 | 0.9 | 0.00 | 0.00 | 0.00 | 57 | 1010.2 |
| 20260505140159 | 57 | 153 | 0.0 | 0.0 | 0.00 | 0.00 | 0.00 | 57 | 1009.9 |
| 20260505130123 | 56 | 153 | 0.0 | 0.9 | 0.00 | 0.00 | 0.00 | 62 | 1009.5 |
| 20260505124613 | 55 | 159 | 0.0 | 0.0 | 0.00 | 0.00 | 0.00 | 60 | 1009.4 |
| 20260505124109 | 55 | 154 | 0.0 | 0.0 | 0.00 | 0.00 | 0.00 | 60 | 1009.1 |
| 20260505123605 | 56 | 151 | 0.0 | 0.0 | 0.00 | 0.00 | 0.00 | 60 | 1009.2 |
| 20260505123102 | 56 | 151 | 0.0 | 0.0 | 0.00 | 0.00 | 0.00 | 60 | 1009.1 |
| 20260505122559 | 56 | 140 | 0.0 | 0.0 | 0.00 | 0.00 | 0.00 | 59 | 1009.1 |
| 20260505122056 | 55 | 136 | 0.0 | 0.0 | 0.00 | 0.00 | 0.00 | 59 | 1009.1 |
| 20260505121552 | 55 | 135 | 0.0 | 0.0 | 0.00 | 0.00 | 0.00 | 59 | 1009.1 |
| 20260505121049 | 55 | 152 | 0.0 | 0.0 | 0.00 | 0.00 | 0.00 | 59 | 1009.1 |
| 20260505120546 | 55 | 153 | 0.0 | 0.0 | 0.00 | 0.00 | 0.00 | 59 | 1009.1 |
| 20260505120041 | 55 | 149 | 0.0 | 0.0 | 0.00 | 0.00 | 0.00 | 58 | 1009.0 |
| 20260505115536 | 56 | 150 | 0.0 | 0.0 | 0.00 | 0.00 | 0.00 | 58 | 1008.9 |
| 20260505115034 | 55 | 158 | 0.0 | 0.0 | 0.00 | 0.00 | 0.00 | 57 | 1008.9 |
| 20260505114530 | 55 | 142 | 0.0 | 0.0 | 0.00 | 0.00 | 0.00 | 57 | 1009.0 |
| 20260505114027 | 55 | 151 | 0.0 | 0.0 | 0.00 | 0.00 | 0.00 | 58 | 1009.0 |
| 20260505113523 | 55 | 140 | 0.0 | 0.0 | 0.00 | 0.00 | 0.00 | 58 | 1008.9 |
| 20260505113020 | 55 | 160 | 0.0 | 0.9 | 0.00 | 0.00 | 0.00 | 58 | 1008.9 |
| 20260505112517 | 56 | 155 | 0.0 | 0.0 | 0.00 | 0.00 | 0.00 | 58 | 1008.9 |
| 20260505112015 | 56 | 150 | 0.0 | 0.0 | 0.00 | 0.00 | 0.00 | 57 | 1008.9 |
| 20260505111508 | 56 | 136 | 0.0 | 0.0 | 0.00 | 0.00 | 0.00 | 56 | 1008.9 |
| 20260505111004 | 56 | 151 | 0.0 | 0.0 | 0.00 | 0.00 | 0.00 | 56 | 1008.8 |
| 20260505110501 | 57 | 157 | 0.0 | 0.0 | 0.00 | 0.00 | 0.00 | 55 | 1009.1 |
| 20260505101933 | 57 | 161 | 0.0 | 0.0 | 0.00 | 0.00 | 0.00 | 56 | 1009.1 |
| 20260505101432 | 57 | 165 | 0.0 | 0.9 | 0.00 | 0.00 | 0.00 | 55 | 1008.9 |
| 20260505100928 | 57 | 164 | 0.0 | 0.9 | 0.00 | 0.00 | 0.00 | 55 | 1009.0 |
| 20260505100425 | 57 | 170 | 0.9 | 0.9 | 0.00 | 0.00 | 0.00 | 55 | 1009.1 |
| 20260505095921 | 57 | 159 | 0.0 | 0.0 | 0.00 | 0.00 | 0.00 | 55 | 1009.2 |
| 20260505095418 | 57 | 168 | 0.0 | 0.9 | 0.00 | 0.00 | 0.00 | 54 | 1009.1 |
| 20260505094914 | 57 | 168 | 0.0 | 0.0 | 0.00 | 0.00 | 0.00 | 54 | 1009.2 |
| 20260505094412 | 57 | 156 | 0.0 | 0.9 | 0.00 | 0.00 | 0.00 | 54 | 1009.3 |
| 20260505093907 | 58 | 146 | 0.0 | 0.0 | 0.00 | 0.00 | 0.00 | 52 | 1009.3 |
| 20260505093404 | 57 | 141 | 0.0 | 2.6 | 0.00 | 0.00 | 0.00 | 53 | 1009.1 |
| 20260505092902 | 57 | 169 | 0.9 | 1.7 | 0.00 | 0.00 | 0.00 | 53 | 1009.1 |
| 20260505092400 | 57 | 117 | 0.9 | 0.9 | 0.00 | 0.00 | 0.00 | 54 | 1009.2 |
| 20260505091856 | 58 | 165 | 0.0 | 0.9 | 0.00 | 0.00 | 0.00 | 54 | 1009.3 |
| 20260505091354 | 58 | 143 | 0.0 | 0.0 | 0.00 | 0.00 | 0.00 | 53 | 1009.4 |
| 20260505090852 | 58 | 121 | 0.0 | 0.9 | 0.00 | 0.00 | 0.00 | 53 | 1009.3 |
| 20260505090350 | 57 | 139 | 0.0 | 0.9 | 0.00 | 0.00 | 0.00 | 53 | 1009.3 |
| 20260505085847 | 57 | 183 | 0.9 | 0.9 | 0.00 | 0.00 | 0.00 | 55 | 1009.2 |
| 20260505085345 | 57 | 153 | 0.0 | 0.0 | 0.00 | 0.00 | 0.00 | 55 | 1009.4 |
| 20260505084842 | 57 | 176 | 0.9 | 0.9 | 0.00 | 0.00 | 0.00 | 55 | 1009.2 |
| 20260505084341 | 57 | 162 | 0.0 | 0.0 | 0.00 | 0.00 | 0.00 | 54 | 1009.3 |
| 20260505083838 | 57 | 170 | 0.0 | 0.0 | 0.00 | 0.00 | 0.00 | 56 | 1009.0 |
| 20260505083335 | 57 | 172 | 0.9 | 0.9 | 0.00 | 0.00 | 0.00 | 55 | 1009.2 |
| 20260505082832 | 57 | 144 | 0.0 | 0.0 | 0.00 | 0.00 | 0.00 | 55 | 1009.4 |
| 20260505082328 | 57 | 158 | 0.0 | 1.7 | 0.00 | 0.00 | 0.00 | 55 | 1009.2 |
| 20260505081825 | 57 | 160 | 0.0 | 1.7 | 0.00 | 0.00 | 0.00 | 55 | 1009.4 |
| 20260505081321 | 58 | 154 | 0.0 | 0.0 | 0.00 | 0.00 | 0.00 | 54 | 1009.5 |
| 20260505080818 | 58 | 170 | 0.0 | 0.9 | 0.00 | 0.00 | 0.00 | 54 | 1009.8 |
| 20260505080314 | 59 | 171 | 0.9 | 0.9 | 0.00 | 0.00 | 0.00 | 54 | 1009.5 |
| 20260505075809 | 59 | 138 | 0.9 | 1.7 | 0.00 | 0.00 | 0.00 | 53 | 1009.5 |
| 20260505075307 | 59 | 164 | 0.0 | 1.7 | 0.00 | 0.00 | 0.00 | 53 | 1009.9 |
| 20260505074804 | 60 | 168 | 0.0 | 1.7 | 0.00 | 0.00 | 0.00 | 53 | 1009.8 |
| 20260505074301 | 59 | 45 | 2.6 | 6.1 | 0.00 | 0.00 | 0.00 | 52 | 1009.9 |
| 20260505073758 | 60 | 145 | 0.0 | 0.9 | 0.00 | 0.00 | 0.00 | 53 | 1009.9 |
| 20260505073256 | 60 | 119 | 0.0 | 0.9 | 0.00 | 0.00 | 0.00 | 53 | 1010.1 |
| 20260505072753 | 60 | 101 | 0.9 | 3.5 | 0.00 | 0.00 | 0.00 | 53 | 1009.9 |
| 20260505072249 | 60 | 114 | 0.0 | 6.1 | 0.00 | 0.00 | 0.00 | 53 | 1009.9 |
| 20260505071745 | 60 | 76 | 4.3 | 5.2 | 0.00 | 0.00 | 0.00 | 53 | 1010.1 |
| 20260505071242 | 60 | 76 | 2.6 | 5.2 | 0.00 | 0.00 | 0.00 | 53 | 1010.1 |
| 20260505070739 | 60 | 78 | 2.6 | 5.2 | 0.00 | 0.00 | 0.00 | 53 | 1009.9 |
| 20260505070235 | 60 | 45 | 6.1 | 7.8 | 0.00 | 0.00 | 0.00 | 53 | 1010.1 |
| 20260505065731 | 60 | 54 | 4.3 | 7.0 | 0.00 | 0.00 | 0.00 | 52 | 1010.0 |
| 20260505065228 | 60 | 63 | 3.5 | 5.2 | 0.00 | 0.00 | 0.00 | 52 | 1010.1 |
| 20260505064725 | 60 | 68 | 3.5 | 8.7 | 0.00 | 0.00 | 0.00 | 52 | 1010.2 |
| 20260505064223 | 61 | 72 | 2.6 | 3.5 | 0.00 | 0.00 | 0.00 | 51 | 1010.1 |
| 20260505063720 | 61 | 34 | 4.3 | 7.8 | 0.00 | 0.00 | 0.00 | 51 | 1010.0 |
| 20260505063216 | 60 | 161 | 0.9 | 3.5 | 0.00 | 0.00 | 0.00 | 52 | 1010.0 |
| 20260505062713 | 61 | 126 | 0.9 | 1.7 | 0.00 | 0.00 | 0.00 | 51 | 1009.8 |
| 20260505062211 | 61 | 59 | 2.6 | 5.2 | 0.00 | 0.00 | 0.00 | 50 | 1009.9 |
| 20260505061707 | 61 | 127 | 0.9 | 3.5 | 0.00 | 0.00 | 0.00 | 49 | 1009.8 |
| 20260505061205 | 61 | 139 | 0.9 | 1.7 | 0.00 | 0.00 | 0.00 | 48 | 1009.5 |
| 20260505060702 | 61 | 137 | 0.9 | 2.6 | 0.00 | 0.00 | 0.00 | 47 | 1009.4 |
| 20260505060159 | 62 | 144 | 0.9 | 1.7 | 0.00 | 0.00 | 0.00 | 46 | 1009.3 |
| 20260505055654 | 62 | 153 | 0.0 | 0.0 | 0.00 | 0.00 | 0.00 | 46 | 1009.3 |
| 20260505055151 | 62 | 159 | 0.0 | 1.7 | 0.00 | 0.00 | 0.00 | 46 | 1009.2 |
| 20260505054649 | 62 | 152 | 0.0 | 1.7 | 0.00 | 0.00 | 0.00 | 45 | 1009.1 |
| 20260505054147 | 62 | 147 | 0.9 | 1.7 | 0.00 | 0.00 | 0.00 | 44 | 1009.2 |
| 20260505053644 | 63 | 154 | 0.0 | 0.9 | 0.00 | 0.00 | 0.00 | 43 | 1009.1 |
| 20260505053140 | 63 | 153 | 0.0 | 0.9 | 0.00 | 0.00 | 0.00 | 43 | 1009.1 |
| 20260505052637 | 63 | 151 | 0.0 | 0.9 | 0.00 | 0.00 | 0.00 | 42 | 1009.0 |
| 20260505052135 | 63 | 126 | 0.0 | 0.9 | 0.00 | 0.00 | 0.00 | 42 | 1008.9 |
| 20260505051631 | 64 | 140 | 0.0 | 0.9 | 0.00 | 0.00 | 0.00 | 42 | 1008.9 |
| 20260505051130 | 64 | 116 | 0.9 | 1.7 | 0.00 | 0.00 | 0.00 | 41 | 1009.0 |
| 20260505050627 | 64 | 145 | 0.9 | 3.5 | 0.00 | 0.00 | 0.00 | 40 | 1008.8 |
| 20260505050125 | 64 | 68 | 4.3 | 7.0 | 0.00 | 0.00 | 0.00 | 39 | 1008.8 |
| 20260505041555 | 64 | 76 | 3.5 | 7.8 | 0.00 | 0.00 | 0.00 | 35 | 1008.3 |
| 20260505041052 | 62 | 61 | 5.2 | 5.2 | 0.00 | 0.00 | 0.00 | 40 | 1008.0 |
| 20260505040549 | 62 | 138 | 0.0 | 0.0 | 0.00 | 0.00 | 0.00 | 40 | 1007.7 |
| 20260505040047 | 63 | 179 | 0.9 | 0.9 | 0.00 | 0.00 | 0.00 | 40 | 1007.6 |
| 20260505035543 | 63 | 124 | 0.0 | 0.9 | 0.00 | 0.00 | 0.00 | 40 | 1007.5 |
| 20260505035039 | 63 | 219 | 1.7 | 1.7 | 0.00 | 0.00 | 0.00 | 39 | 1007.4 |
| 20260505034536 | 63 | 152 | 0.0 | 0.0 | 0.00 | 0.00 | 0.00 | 39 | 1007.5 |
| 20260505034033 | 64 | 150 | 0.0 | 0.0 | 0.00 | 0.00 | 0.00 | 38 | 1007.4 |
| 20260505033530 | 64 | 159 | 0.0 | 0.9 | 0.00 | 0.00 | 0.00 | 37 | 1007.3 |
| 20260505033028 | 65 | 168 | 0.9 | 1.7 | 0.00 | 0.00 | 0.00 | 38 | 1007.4 |
| 20260505032525 | 65 | 158 | 0.0 | 0.0 | 0.00 | 0.00 | 0.00 | 37 | 1007.3 |
| 20260505032022 | 65 | 161 | 0.0 | 0.9 | 0.00 | 0.00 | 0.00 | 37 | 1007.2 |
| 20260505031519 | 65 | 187 | 0.9 | 0.9 | 0.00 | 0.00 | 0.00 | 36 | 1007.0 |
| 20260505031015 | 66 | 158 | 0.0 | 0.0 | 0.00 | 0.00 | 0.00 | 35 | 1007.0 |
| 20260505030512 | 66 | 143 | 0.9 | 1.7 | 0.00 | 0.00 | 0.00 | 33 | 1007.2 |
| 20260505030008 | 67 | 169 | 0.9 | 0.9 | 0.00 | 0.00 | 0.00 | 33 | 1007.0 |
| 20260505025504 | 68 | 140 | 0.0 | 0.9 | 0.00 | 0.00 | 0.00 | 32 | 1006.9 |
| 20260505025004 | 68 | 132 | 0.0 | 0.9 | 0.00 | 0.00 | 0.00 | 31 | 1006.8 |
| 20260505024500 | 68 | 98 | 0.9 | 1.7 | 0.00 | 0.00 | 0.00 | 31 | 1006.8 |
| 20260505023957 | 68 | 134 | 0.0 | 0.9 | 0.00 | 0.00 | 0.00 | 30 | 1006.7 |
| 20260505023454 | 68 | 125 | 0.9 | 0.9 | 0.00 | 0.00 | 0.00 | 30 | 1006.7 |
| 20260505022951 | 69 | 121 | 0.9 | 0.9 | 0.00 | 0.00 | 0.00 | 30 | 1006.8 |
| 20260505022449 | 69 | 136 | 0.0 | 0.9 | 0.00 | 0.00 | 0.00 | 30 | 1006.5 |
| 20260505021946 | 69 | 131 | 0.0 | 1.7 | 0.00 | 0.00 | 0.00 | 29 | 1006.7 |
| 20260505021442 | 70 | 105 | 0.9 | 1.7 | 0.00 | 0.00 | 0.00 | 29 | 1006.5 |
| 20260505020938 | 70 | 89 | 1.7 | 2.6 | 0.00 | 0.00 | 0.00 | 28 | 1006.6 |
| 20260505020433 | 70 | 118 | 2.6 | 3.5 | 0.00 | 0.00 | 0.00 | 28 | 1006.4 |
| 20260505015931 | 71 | 109 | 1.7 | 3.5 | 0.00 | 0.00 | 0.00 | 27 | 1006.5 |
| 20260505015428 | 71 | 95 | 1.7 | 2.6 | 0.00 | 0.00 | 0.00 | 27 | 1006.4 |
| 20260505014925 | 71 | 102 | 1.7 | 3.5 | 0.00 | 0.00 | 0.00 | 26 | 1006.3 |
| 20260505014421 | 71 | 140 | 0.9 | 2.6 | 0.00 | 0.00 | 0.00 | 27 | 1006.3 |
| 20260505013919 | 71 | 80 | 2.6 | 5.2 | 0.00 | 0.00 | 0.00 | 27 | 1006.3 |
| 20260505013416 | 71 | 99 | 3.5 | 6.1 | 0.00 | 0.00 | 0.00 | 28 | 1006.1 |
| 20260505012914 | 72 | 72 | 5.2 | 7.0 | 0.00 | 0.00 | 0.00 | 28 | 1006.5 |
| 20260505012411 | 72 | 105 | 2.6 | 5.2 | 0.00 | 0.00 | 0.00 | 28 | 1006.6 |
| 20260505011907 | 72 | 69 | 4.3 | 6.1 | 0.00 | 0.00 | 0.00 | 28 | 1006.4 |
| 20260505011404 | 73 | 42 | 4.3 | 6.1 | 0.00 | 0.00 | 0.00 | 27 | 1006.5 |
| 20260505010900 | 73 | 46 | 1.7 | 5.2 | 0.00 | 0.00 | 0.00 | 27 | 1006.6 |
| 20260505010356 | 74 | 64 | 4.3 | 5.2 | 0.00 | 0.00 | 0.00 | 26 | 1006.5 |
| 20260505005852 | 75 | 136 | 0.9 | 1.7 | 0.00 | 0.00 | 0.00 | 26 | 1006.5 |
| 20260505005349 | 75 | 136 | 1.7 | 1.7 | 0.00 | 0.00 | 0.00 | 27 | 1006.5 |
| 20260505004847 | 74 | 115 | 2.6 | 5.2 | 0.00 | 0.00 | 0.00 | 27 | 1006.6 |
| 20260505004343 | 75 | 172 | 1.7 | 7.0 | 0.00 | 0.00 | 0.00 | 26 | 1006.5 |
| 20260505003841 | 75 | 167 | 1.7 | 3.5 | 0.00 | 0.00 | 0.00 | 27 | 1006.7 |
| 20260505003338 | 75 | 154 | 1.7 | 5.2 | 0.00 | 0.00 | 0.00 | 26 | 1006.5 |
| 20260505002834 | 75 | 88 | 1.7 | 3.5 | 0.00 | 0.00 | 0.00 | 25 | 1006.7 |
| 20260505002331 | 75 | 158 | 0.9 | 2.6 | 0.00 | 0.00 | 0.00 | 26 | 1006.9 |
| 20260505001829 | 75 | 121 | 0.9 | 2.6 | 0.00 | 0.00 | 0.00 | 26 | 1006.9 |
| 20260505001326 | 75 | 137 | 0.9 | 2.6 | 0.00 | 0.00 | 0.00 | 26 | 1006.6 |
| 20260505000823 | 75 | 98 | 0.9 | 1.7 | 0.00 | 0.00 | 0.00 | 26 | 1006.9 |
| 20260505000321 | 75 | 118 | 0.9 | 2.6 | 0.00 | 0.00 | 0.00 | 26 | 1007.0 |
| 20260504235817 | 75 | 117 | 2.6 | 7.8 | 0.00 | 0.00 | 0.00 | 26 | 1007.0 |
| 20260504235314 | 75 | 71 | 0.9 | 6.1 | 0.00 | 0.00 | 0.00 | 27 | 1006.9 |
| 20260504234811 | 74 | 94 | 0.9 | 3.5 | 0.00 | 0.00 | 0.00 | 27 | 1007.0 |
| 20260504234309 | 74 | 79 | 2.6 | 5.2 | 0.00 | 0.00 | 0.00 | 27 | 1007.0 |
| 20260504233805 | 74 | 106 | 2.6 | 5.2 | 0.00 | 0.00 | 0.00 | 30 | 1006.9 |
| 20260504233300 | 75 | 69 | 3.5 | 7.0 | 0.00 | 0.00 | 0.00 | 28 | 1007.0 |
| 20260504232758 | 76 | 105 | 1.7 | 7.8 | 0.00 | 0.00 | 0.00 | 28 | 1007.2 |
| 20260504232255 | 75 | 66 | 2.6 | 6.1 | 0.00 | 0.00 | 0.00 | 28 | 1006.9 |
| 20260504231751 | 75 | 138 | 2.6 | 11.3 | 0.00 | 0.00 | 0.00 | 28 | 1006.9 |
| 20260504231248 | 75 | 89 | 1.7 | 6.1 | 0.00 | 0.00 | 0.00 | 29 | 1006.8 |
| 20260504230744 | 75 | 131 | 3.5 | 7.8 | 0.00 | 0.00 | 0.00 | 30 | 1006.7 |
| 20260504230242 | 78 | 63 | 4.3 | 7.0 | 0.00 | 0.00 | 0.00 | 27 | 1006.8 |
| 20260504225741 | 77 | 126 | 1.7 | 1.7 | 0.00 | 0.00 | 0.00 | 23 | 1006.5 |
| 20260504225237 | 76 | 132 | 0.9 | 7.8 | 0.00 | 0.00 | 0.00 | 23 | 1006.8 |
| 20260504224734 | 76 | 122 | 1.7 | 3.5 | 0.00 | 0.00 | 0.00 | 23 | 1006.8 |
| 20260504224231 | 76 | 156 | 2.6 | 3.5 | 0.00 | 0.00 | 0.00 | 22 | 1006.8 |
| 20260504223727 | 77 | 63 | 3.5 | 6.1 | 0.00 | 0.00 | 0.00 | 22 | 1006.8 |
| 20260504223223 | 78 | 186 | 2.6 | 3.5 | 0.00 | 0.00 | 0.00 | 21 | 1006.7 |
| 20260504222720 | 77 | 129 | 3.5 | 5.2 | 0.00 | 0.00 | 0.00 | 25 | 1006.8 |
| 20260504222217 | 77 | 128 | 1.7 | 5.2 | 0.00 | 0.00 | 0.00 | 24 | 1006.9 |
| 20260504221714 | 77 | 157 | 0.0 | 1.7 | 0.00 | 0.00 | 0.00 | 24 | 1006.7 |
| 20260504221211 | 78 | 67 | 3.5 | 6.1 | 0.00 | 0.00 | 0.00 | 20 | 1007.0 |
| 20260504220708 | 78 | 113 | 1.7 | 5.2 | 0.00 | 0.00 | 0.00 | 23 | 1006.9 |
| 20260504220206 | 78 | 86 | 2.6 | 2.6 | 0.00 | 0.00 | 0.00 | 21 | 1006.9 |
| 20260504215702 | 78 | 171 | 1.7 | 3.5 | 0.00 | 0.00 | 0.00 | 22 | 1007.3 |
| 20260504215159 | 79 | 59 | 2.6 | 3.5 | 0.00 | 0.00 | 0.00 | 22 | 1007.3 |
| 20260504214654 | 78 | 150 | 0.9 | 5.2 | 0.00 | 0.00 | 0.00 | 23 | 1007.2 |
| 20260504214151 | 78 | 84 | 1.7 | 6.1 | 0.00 | 0.00 | 0.00 | 23 | 1007.5 |
| 20260504213648 | 79 | 136 | 2.6 | 3.5 | 0.00 | 0.00 | 0.00 | 23 | 1007.4 |
| 20260504213145 | 79 | 161 | 0.9 | 6.1 | 0.00 | 0.00 | 0.00 | 24 | 1007.6 |
| 20260504212641 | 78 | 174 | 0.9 | 6.1 | 0.00 | 0.00 | 0.00 | 24 | 1007.8 |
| 20260504212138 | 78 | 196 | 2.6 | 5.2 | 0.00 | 0.00 | 0.00 | 25 | 1007.6 |
| 20260504211636 | 78 | 160 | 1.7 | 3.5 | 0.00 | 0.00 | 0.00 | 26 | 1007.7 |
| 20260504211132 | 78 | 138 | 0.9 | 3.5 | 0.00 | 0.00 | 0.00 | 24 | 1007.8 |
| 20260504210630 | 77 | 186 | 2.6 | 2.6 | 0.00 | 0.00 | 0.00 | 26 | 1007.8 |
| 20260504210126 | 78 | 69 | 2.6 | 2.6 | 0.00 | 0.00 | 0.00 | 24 | 1008.2 |
| 20260504205623 | 77 | 115 | 0.9 | 2.6 | 0.00 | 0.00 | 0.00 | 24 | 1008.0 |
| 20260504205121 | 77 | 119 | 1.7 | 3.5 | 0.00 | 0.00 | 0.00 | 23 | 1008.1 |
| 20260504204619 | 77 | 155 | 0.9 | 3.5 | 0.00 | 0.00 | 0.00 | 22 | 1008.1 |
| 20260504204118 | 77 | 75 | 4.3 | 5.2 | 0.00 | 0.00 | 0.00 | 23 | 1008.2 |
| 20260504203616 | 78 | 94 | 3.5 | 5.2 | 0.00 | 0.00 | 0.00 | 23 | 1007.8 |
| 20260504203113 | 78 | 91 | 0.9 | 5.2 | 0.00 | 0.00 | 0.00 | 24 | 1008.3 |
| 20260504202608 | 78 | 156 | 1.7 | 2.6 | 0.00 | 0.00 | 0.00 | 24 | 1008.3 |
| 20260504202105 | 76 | 150 | 0.9 | 3.5 | 0.00 | 0.00 | 0.00 | 24 | 1008.3 |
| 20260504201602 | 77 | 42 | 4.3 | 6.1 | 0.00 | 0.00 | 0.00 | 23 | 1008.4 |
| 20260504201100 | 77 | 167 | 1.7 | 5.2 | 0.00 | 0.00 | 0.00 | 25 | 1008.5 |
| 20260504200556 | 77 | 59 | 1.7 | 2.6 | 0.00 | 0.00 | 0.00 | 26 | 1008.4 |
| 20260504200053 | 77 | 48 | 1.7 | 2.6 | 0.00 | 0.00 | 0.00 | 26 | 1008.6 |
| 20260504195549 | 76 | 157 | 0.9 | 3.5 | 0.00 | 0.00 | 0.00 | 26 | 1008.6 |
| 20260504195046 | 76 | 237 | 3.5 | 6.1 | 0.00 | 0.00 | 0.00 | 25 | 1008.8 |
| 20260504194542 | 76 | 159 | 0.9 | 6.1 | 0.00 | 0.00 | 0.00 | 26 | 1008.8 |
| 20260504194038 | 77 | 164 | 0.9 | 1.7 | 0.00 | 0.00 | 0.00 | 24 | 1009.0 |
| 20260504193535 | 76 | 219 | 0.9 | 1.7 | 0.00 | 0.00 | 0.00 | 26 | 1009.0 |
| 20260504193033 | 76 | 129 | 0.9 | 3.5 | 0.00 | 0.00 | 0.00 | 29 | 1009.0 |
| 20260504192531 | 75 | 268 | 1.7 | 6.1 | 0.00 | 0.00 | 0.00 | 27 | 1009.2 |
| 20260504192029 | 75 | 58 | 1.7 | 2.6 | 0.00 | 0.00 | 0.00 | 28 | 1009.0 |
| 20260504191527 | 75 | 86 | 1.7 | 5.2 | 0.00 | 0.00 | 0.00 | 28 | 1009.0 |
| 20260504191023 | 74 | 92 | 1.7 | 2.6 | 0.00 | 0.00 | 0.00 | 27 | 1009.1 |
| 20260504190519 | 74 | 99 | 1.7 | 5.2 | 0.00 | 0.00 | 0.00 | 25 | 1009.2 |
| 20260504190015 | 75 | 150 | 0.9 | 2.6 | 0.00 | 0.00 | 0.00 | 27 | 1009.3 |
| 20260504185512 | 76 | 59 | 3.5 | 3.5 | 0.00 | 0.00 | 0.00 | 25 | 1009.4 |
| 20260504185009 | 75 | 153 | 1.7 | 3.5 | 0.00 | 0.00 | 0.00 | 28 | 1009.4 |
| 20260504184509 | 75 | 221 | 1.7 | 3.5 | 0.00 | 0.00 | 0.00 | 25 | 1009.4 |
| 20260504184005 | 75 | 182 | 0.9 | 1.7 | 0.00 | 0.00 | 0.00 | 26 | 1009.8 |
| 20260504183503 | 74 | 208 | 1.7 | 2.6 | 0.00 | 0.00 | 0.00 | 28 | 1009.8 |
| 20260504183001 | 75 | 119 | 0.9 | 6.1 | 0.00 | 0.00 | 0.00 | 27 | 1009.5 |
| 20260504182457 | 75 | 150 | 0.0 | 3.5 | 0.00 | 0.00 | 0.00 | 30 | 1009.7 |
| 20260504181955 | 74 | 124 | 0.9 | 1.7 | 0.00 | 0.00 | 0.00 | 26 | 1009.7 |
| 20260504181451 | 75 | 151 | 0.9 | 1.7 | 0.00 | 0.00 | 0.00 | 26 | 1010.1 |
| 20260504180950 | 75 | 173 | 1.7 | 2.6 | 0.00 | 0.00 | 0.00 | 28 | 1010.0 |
| 20260504180449 | 74 | 148 | 2.6 | 5.2 | 0.00 | 0.00 | 0.00 | 29 | 1009.9 |
| 20260504175947 | 75 | 155 | 1.7 | 5.2 | 0.00 | 0.00 | 0.00 | 28 | 1010.1 |
| 20260504175443 | 74 | 146 | 0.0 | 0.9 | 0.00 | 0.00 | 0.00 | 27 | 1010.0 |
| 20260504174941 | 74 | 126 | 1.7 | 5.2 | 0.00 | 0.00 | 0.00 | 29 | 1010.1 |
| 20260504174438 | 74 | 99 | 0.9 | 3.5 | 0.00 | 0.00 | 0.00 | 30 | 1010.2 |
| 20260504173936 | 73 | 145 | 0.9 | 0.9 | 0.00 | 0.00 | 0.00 | 31 | 1010.2 |
| 20260504173431 | 74 | 153 | 1.7 | 3.5 | 0.00 | 0.00 | 0.00 | 29 | 1010.2 |
| 20260504172930 | 74 | 154 | 0.9 | 5.2 | 0.00 | 0.00 | 0.00 | 29 | 1010.2 |
| 20260504172425 | 74 | 189 | 1.7 | 2.6 | 0.00 | 0.00 | 0.00 | 30 | 1010.1 |
| 20260504171922 | 73 | 148 | 0.9 | 2.6 | 0.00 | 0.00 | 0.00 | 32 | 1010.2 |
| 20260504171419 | 73 | 165 | 0.9 | 3.5 | 0.00 | 0.00 | 0.00 | 29 | 1010.3 |
| 20260504170916 | 72 | 74 | 2.6 | 2.6 | 0.00 | 0.00 | 0.00 | 29 | 1010.3 |
| 20260504170412 | 71 | 155 | 0.0 | 1.7 | 0.00 | 0.00 | 0.00 | 27 | 1010.2 |
| 20260504160332 | 69 | 182 | 1.7 | 2.6 | 0.00 | 0.00 | 0.00 | 33 | 1010.5 |